[[{"header":{"parameterUnit":"m.s-1","parameterCategory":1,"la1":30.2991,"la2":30.254,"lo1":-89.0895,"lo2":-89.0444,"dy":0.0017,"dx":0.0017,"nx":28,"ny":28,"refTime":"2025-03-24T21:00:00:Z","depth":0,"parameterNumber":2,"parameterNumberName":"U-component_of_WINDS"},"data":[0,0,0,0,0,0,0,0,0,0,0,0,0,0,0,0,0,0,0,0,0,0,0,0,0,0,0,0,0,0,0,0,0,0,0,0,0,0,0,0,0,0,0,0,0,0,0,0,0,0,0,0,0,0,0,0,0,0,0.3266,0.3267,0,0.3351,0.3351,0.3352,0.3391,0.3391,0.3391,0.3391,0.3478,0.348,0.3482,0,0,0,0,0,0,0,0,0,0,0,0,0,0.3136,0.3138,0.3266,0.3267,0.3268,0.335,0.3352,0.3353,0.3391,0.3391,0.3391,0.3391,0.3477,0.348,0.3482,0,0,0,0,0,0,0,0,0,0,0,0,0,0.3204,0.3139,0.3266,0.3297,0.3301,0.335,0.3352,0.3353,0.3391,0.3391,0.3391,0.3391,0.3476,0.3479,0.3483,0.3507,0,0,0.3494,0.3495,0,0,0,0,0,0,0,0,0.32,0.3208,0.3291,0.3295,0.3299,0.336,0.3338,0.3405,0.3391,0.3357,0.3391,0.3391,0.3439,0.3445,0.3461,0.3511,0.3515,0.3494,0.3496,0.3498,0.3499,0,0,0,0,0,0,0,0.3195,0.3205,0.3299,0.3293,0.3297,0.3307,0.3316,0.335,0.3397,0.336,0.3363,0.3373,0.3441,0.3458,0.3464,0.3516,0.3494,0.3497,0.3499,0.3501,0.3589,0.3589,0,0,0,0,0,0,0.3185,0.3201,0.3297,0.3302,0.3248,0.3309,0.332,0.3341,0.3397,0.3406,0.3373,0.3374,0.3452,0.346,0.3467,0.3498,0.3498,0.3501,0.3503,0.3588,0.3589,0.3589,0,0,0,0,0,0,0.3182,0.3193,0.3293,0.3252,0.3266,0.3311,0.3335,0.3343,0.336,0.3407,0.3415,0.3381,0.3452,0.3462,0.3497,0.3502,0.3503,0.3506,0.3588,0.3588,0.3589,0.3562,0,0,0,0,0,0,0.3178,0.3192,0.3202,0.3252,0.3268,0.3322,0.3335,0.3344,0.3366,0.3369,0.3417,0.3425,0.3453,0.3491,0.35,0.3507,0.3509,0.3588,0.3588,0.3589,0.3562,0.3561,0.356,0,0,0,0,0,0.3174,0.3191,0.3203,0.3214,0.3281,0.3322,0.3331,0.3362,0.3366,0.3376,0.3406,0.3424,0.35,0.3494,0.3505,0.3513,0.3588,0.3588,0.3589,0.3563,0.3561,0.356,0,0,0,0,0,0,0.3141,0.3199,0.3212,0.3246,0.3279,0.3329,0.3343,0.336,0.3392,0.3393,0.3431,0.3441,0.3472,0.3496,0.3489,0.3538,0.3545,0.3548,0.3522,0.3521,0.352,0.3513,0.3512,0,0,0,0,0,0.3138,0.3167,0.3215,0.3241,0.3257,0.3297,0.3316,0.3337,0.3372,0.3386,0.3419,0.3452,0.3483,0.3503,0.3535,0.3565,0.3576,0.3576,0.3575,0.3573,0.3575,0.3592,0.3592,0.359,0.359,0.359,0,0,0.3132,0.3167,0.3183,0.3235,0.3263,0.3291,0.3308,0.3338,0.3359,0.3391,0.3425,0.345,0.349,0.3522,0.3538,0.3543,0.3578,0.3574,0.3573,0.3575,0.3593,0.3593,0.3593,0.3591,0.3591,0.3591,0,0,0.3136,0.3165,0.3189,0.3217,0.3258,0.3285,0.329,0.3337,0.3355,0.339,0.3414,0.3439,0.3493,0.352,0.354,0.3552,0.3569,0.3561,0.3555,0.3571,0.3571,0.3571,0.3575,0.3576,0.3563,0.3563,0.3563,0,0.3123,0.3167,0.32,0.3228,0.3249,0.3279,0.3303,0.3328,0.3378,0.3392,0.3397,0.3463,0.3492,0.3531,0.3533,0.3549,0.3556,0.3556,0.3568,0.3569,0.357,0.3574,0.3575,0.3561,0.3562,0.3562,0.3562,0,0.3149,0.3179,0.3193,0.324,0.3264,0.329,0.3326,0.3345,0.3364,0.3389,0.3424,0.3459,0.3498,0.3508,0.3527,0.3549,0.3551,0.3561,0.3569,0.3568,0.3573,0.3574,0.356,0.356,0.356,0.3561,0,0,0.3135,0.3199,0.3204,0.3225,0.3273,0.3296,0.3323,0.336,0.3376,0.3409,0.3432,0.3476,0.3485,0.3509,0.353,0.3544,0.355,0.3553,0.3554,0.3551,0.3576,0.3568,0.3569,0.3561,0.3562,0.3562,0.3572,0,0.3145,0.3195,0.3224,0.3262,0.3289,0.3317,0.334,0.3371,0.3395,0.3421,0.3448,0.3478,0.3489,0.3503,0.3518,0.3546,0.3556,0.3546,0.3583,0.3584,0.3572,0.3571,0.3563,0.3571,0.3574,0.3575,0.3575,0,0.3164,0.3196,0.3236,0.3279,0.3292,0.3312,0.3348,0.3373,0.3408,0.3425,0.345,0.3471,0.35,0.3504,0.3544,0.3536,0.3553,0.3569,0.357,0.3575,0.3579,0.3576,0.3575,0.3576,0.3578,0.3578,0.3577,0,0.3149,0.3202,0.3233,0.325,0.3302,0.3315,0.3337,0.3372,0.3393,0.3424,0.3437,0.3471,0.349,0.3515,0.3545,0.3546,0.3581,0.3589,0.3595,0.3594,0.3602,0.3601,0.3603,0.3612,0.3612,0.3612,0.3612,0,0.3157,0.3181,0.3227,0.3246,0.3272,0.3305,0.3331,0.3355,0.3385,0.3409,0.3434,0.3456,0.3494,0.3519,0.3543,0.3571,0.3579,0.3593,0.3599,0.3591,0.3589,0.3602,0.3603,0.3612,0.3612,0.3612,0.3612,0,0.3146,0.3179,0.3214,0.3259,0.3271,0.3288,0.3327,0.3346,0.337,0.3399,0.3408,0.3447,0.3478,0.351,0.3553,0.3568,0.3596,0.3604,0.3584,0.3587,0.3592,0.3591,0.3603,0.3606,0.3612,0.3612,0.3612,0,0.315,0.3168,0.3215,0.3233,0.3254,0.3282,0.3303,0.3335,0.3355,0.3396,0.341,0.3443,0.3471,0.352,0.3552,0.3584,0.3593,0.3595,0.3598,0.3589,0.3593,0.3591,0.3593,0.3594,0.3593,0.3593,0.3593,0,0.3152,0.3166,0.3195,0.3229,0.3253,0.3281,0.3311,0.3323,0.3361,0.3383,0.3415,0.3437,0.348,0.3512,0.3548,0.357,0.3587,0.3592,0.3595,0.3587,0.3574,0.3581,0.358,0.3591,0.3592,0.3592,0.3592,0.3592,0.3148,0.3165,0.3201,0.3232,0.3257,0.3283,0.3303,0.333,0.3357,0.3395,0.3412,0.3444,0.3478,0.3527,0.3549,0.3574,0.3579,0.3583,0.3585,0.3585,0.3583,0.357,0.358,0.3581,0.3581,0.3581,0.3581,0,0.3151,0.3175,0.3203,0.3243,0.3267,0.3281,0.3314,0.3333,0.3361,0.3391,0.3418,0.3454,0.3485,0.3518,0.3551,0.3565,0.3574,0.3572,0.3572,0.3576,0.3577,0.3571,0.3565,0.3565,0.3565,0.3565,0.3565,0.3565,0.3155,0.3185,0.3204,0.3246,0.327,0.3301,0.3319,0.3343,0.3367,0.3406,0.3432,0.3453,0.3484,0.3519,0.3548,0.3557,0.3568,0.3564,0.3575,0.3575,0.3577,0.3578,0.3572,0.3566,0.3566,0.3573,0.3573,0.3573]},{"header":{"parameterUnit":"m.s-1","parameterCategory":1,"la1":30.2991,"la2":30.254,"lo1":-89.0895,"lo2":-89.0444,"dy":0.0017,"dx":0.0017,"nx":28,"ny":28,"refTime":"2025-03-24T21:00:00:Z","depth":0,"parameterNumber":3,"parameterNumberName":"V-component_of_WINDS"},"data":[0,0,0,0,0,0,0,0,0,0,0,0,0,0,0,0,0,0,0,0,0,0,0,0,0,0,0,0,0,0,0,0,0,0,0,0,0,0,0,0,0,0,0,0,0,0,0,0,0,0,0,0,0,0,0,0,0,0,2.5349,2.5349,0,2.536,2.536,2.536,2.5364,2.5364,2.5364,2.5364,2.5374,2.5374,2.5374,0,0,0,0,0,0,0,0,0,0,0,0,0,2.533,2.533,2.5349,2.5349,2.5349,2.536,2.536,2.536,2.5364,2.5364,2.5364,2.5364,2.5374,2.5374,2.5374,0,0,0,0,0,0,0,0,0,0,0,0,0,2.5339,2.533,2.5349,2.5352,2.5353,2.536,2.536,2.536,2.5364,2.5364,2.5364,2.5364,2.5373,2.5374,2.5374,2.5378,0,0,2.5376,2.5376,0,0,0,0,0,0,0,0,2.5339,2.534,2.5352,2.5352,2.5353,2.5361,2.5357,2.5366,2.5364,2.536,2.5364,2.5364,2.5369,2.537,2.5372,2.5378,2.5379,2.5376,2.5376,2.5376,2.5376,0,0,0,0,0,0,0,2.5338,2.5339,2.5353,2.5352,2.5352,2.5353,2.5354,2.5359,2.5365,2.536,2.5361,2.5362,2.5369,2.5372,2.5372,2.5379,2.5376,2.5376,2.5376,2.5376,2.5389,2.539,0,0,0,0,0,0,2.5337,2.5339,2.5353,2.5353,2.5345,2.5354,2.5355,2.5358,2.5365,2.5366,2.5362,2.5362,2.5371,2.5372,2.5373,2.5378,2.5376,2.5376,2.5377,2.5389,2.5389,2.539,0,0,0,0,0,0,2.5337,2.5338,2.5352,2.5346,2.5348,2.5354,2.5357,2.5358,2.5361,2.5366,2.5367,2.5363,2.5371,2.5372,2.5377,2.5378,2.5377,2.5377,2.5389,2.5389,2.5389,2.5388,0,0,0,0,0,0,2.5336,2.5338,2.534,2.5346,2.5348,2.5356,2.5357,2.5359,2.5362,2.5362,2.5367,2.5368,2.5371,2.5376,2.5377,2.5379,2.5377,2.5389,2.5389,2.5389,2.5388,2.5388,2.5388,0,0,0,0,0,2.5335,2.5338,2.534,2.5341,2.5351,2.5357,2.5358,2.5361,2.5362,2.5363,2.5367,2.5368,2.5378,2.5377,2.5378,2.538,2.5389,2.5389,2.5389,2.5388,2.5388,2.5388,0,0,0,0,0,0,2.533,2.5339,2.5341,2.5346,2.5351,2.5357,2.5359,2.5361,2.5366,2.5366,2.537,2.5371,2.5375,2.5378,2.5376,2.5384,2.5384,2.5384,2.5382,2.5382,2.5382,2.5382,2.5378,0,0,0,0,0,2.533,2.5334,2.5342,2.5345,2.5348,2.5353,2.5356,2.5359,2.5363,2.5365,2.5369,2.5373,2.5377,2.538,2.5384,2.5389,2.539,2.539,2.5391,2.5391,2.5391,2.5394,2.5395,2.539,2.539,2.539,0,0,2.5329,2.5334,2.5336,2.5344,2.5348,2.5353,2.5355,2.5359,2.5362,2.5365,2.5371,2.5374,2.5379,2.5384,2.5386,2.5386,2.5393,2.5391,2.5391,2.5391,2.5395,2.5395,2.5396,2.539,2.539,2.539,0,0,2.5329,2.5333,2.5338,2.5342,2.5348,2.5352,2.5353,2.536,2.5363,2.5368,2.5371,2.5375,2.5382,2.5385,2.5388,2.5392,2.5393,2.5393,2.5393,2.5397,2.5397,2.5397,2.5399,2.54,2.5393,2.5393,2.5393,0,2.5326,2.5334,2.5339,2.5344,2.5348,2.5352,2.5356,2.536,2.5367,2.5369,2.5369,2.5379,2.5383,2.5389,2.539,2.5392,2.5393,2.5392,2.5397,2.5397,2.5398,2.5399,2.54,2.5393,2.5393,2.5393,2.5393,0,2.5331,2.5336,2.5339,2.5347,2.5351,2.5355,2.5361,2.5364,2.5367,2.5371,2.5377,2.5381,2.5387,2.5389,2.5391,2.5396,2.5395,2.5396,2.5396,2.5398,2.54,2.54,2.5393,2.5393,2.5393,2.5393,0,0,2.5327,2.534,2.534,2.5345,2.5353,2.5357,2.5362,2.5368,2.5371,2.5376,2.5381,2.5387,2.5388,2.5391,2.5394,2.5397,2.54,2.5397,2.5398,2.5398,2.5407,2.5406,2.5407,2.5402,2.5402,2.5402,2.5407,0,2.5329,2.5339,2.5344,2.5351,2.5357,2.5361,2.5366,2.5371,2.5375,2.538,2.5384,2.5389,2.539,2.5392,2.5395,2.5399,2.5402,2.5399,2.5406,2.5406,2.5404,2.5408,2.5407,2.5411,2.5407,2.5407,2.5407,0,2.5332,2.5338,2.5347,2.5356,2.5358,2.5362,2.5369,2.5373,2.538,2.5383,2.5387,2.539,2.5396,2.5395,2.5403,2.5401,2.5404,2.5406,2.5407,2.5407,2.5407,2.5409,2.5413,2.5413,2.5408,2.5408,2.5408,0,2.5329,2.534,2.5346,2.535,2.536,2.5363,2.5367,2.5374,2.5378,2.5384,2.5386,2.5393,2.5396,2.5401,2.5405,2.5404,2.5413,2.5412,2.5415,2.5415,2.5416,2.5416,2.5421,2.5418,2.5418,2.5418,2.5418,0,2.5331,2.5335,2.5346,2.5349,2.5355,2.5362,2.5367,2.5372,2.5378,2.5383,2.5387,2.5391,2.5397,2.5403,2.5406,2.5412,2.5414,2.5416,2.5417,2.5416,2.5416,2.5418,2.5418,2.5418,2.5418,2.5418,2.5418,0,2.5328,2.5335,2.5343,2.5353,2.5355,2.5359,2.5367,2.5371,2.5376,2.5383,2.5384,2.5392,2.5398,2.5403,2.5411,2.5414,2.5421,2.5421,2.5419,2.5419,2.5422,2.5422,2.5428,2.543,2.5425,2.5426,2.5426,0,2.5328,2.5333,2.5344,2.5348,2.5352,2.5359,2.5363,2.537,2.5374,2.5383,2.5386,2.5393,2.5399,2.5409,2.5415,2.5422,2.5423,2.5425,2.5424,2.5423,2.5423,2.5423,2.5424,2.5425,2.5425,2.5425,2.5425,0,2.5329,2.5332,2.5339,2.5348,2.5353,2.536,2.5367,2.537,2.5377,2.5382,2.539,2.5394,2.5404,2.5411,2.5418,2.5422,2.5425,2.5425,2.5426,2.5425,2.5424,2.5425,2.5419,2.5425,2.5425,2.5425,2.5425,2.5425,2.5328,2.5332,2.5341,2.5349,2.5355,2.5362,2.5366,2.5373,2.5379,2.5388,2.5391,2.5399,2.5406,2.5417,2.5421,2.5427,2.5427,2.5428,2.5429,2.5429,2.5429,2.5423,2.5428,2.5428,2.5428,2.5428,2.5428,0,2.5329,2.5335,2.5342,2.5352,2.5359,2.5362,2.537,2.5375,2.5382,2.5389,2.5395,2.5404,2.5411,2.5418,2.5426,2.5429,2.5431,2.5431,2.5431,2.5432,2.5428,2.5427,2.543,2.543,2.543,2.543,2.543,2.543,2.533,2.5338,2.5343,2.5354,2.536,2.5369,2.5373,2.5379,2.5385,2.5395,2.5402,2.5407,2.5414,2.5422,2.5429,2.5431,2.5434,2.5434,2.5436,2.5432,2.5432,2.5432,2.543,2.5434,2.5434,2.5439,2.5439,2.5439]}]]